STARLINK-36956

Last updated on Mon Mar 30 2026 00:02:05 GMT+0000 (Coordinated Universal Time)

1 68009U 26039Z 26088.16668981 -.01847265 00000+0 -63710-1 0 9994 2 68009 43.0000 298.9310 0001481 257.4888 50.0273 15.32775485 6000
UTC large
Height (km)
Speed (km/s)
/
Latitude / Longitude
Inclination (degrees)
Orbital Period (minutes)
Azimuth
Elevation
Range (km)
Doppler Factor

Next 0 passes for location: London (51.5072 / 0.1276)

Sorry there are no passes over London.